Flag for United Kingdom Weather past 2 weeks in Poole, England, United Kingdom

Now
82 °F

Passing clouds.


Feels Like: 82 °F
Forecast: 60 / 77 °F
Wind: 8 mph from South

Location: Bournemouth Airport

Current Time: Jul 24, 2014 at 5:18:20 PM

Latest Report: Jul 24, 2014 at 4:50 PM


Visibility: N/A

Pressure: 29.98 "Hg

Humidity: 45%

Dew point: 59 °F

Location of PooleLocation

Historic Weather in Poole — Graph

°F

Poole temperature yesterday

Maximum temperature yesterday: 84 °F (at 2:50 PM)
Minimum temperature yesterday: 61 °F (at 5:20 AM)
Average temperature yesterday: 75 °F

Past Weeks' High & Low Weather Summary

 TemperatureHumidityPressure
High84 °F (Jul 22, 3:20 PM)100% (Jul 12, 3:20 AM)30.21 "Hg (Jul 12, 3:20 AM)
Low50 °F (Jul 14, 4:50 AM)35% (Jul 22, 5:20 PM)29.71 "Hg (Jul 19, 5:20 PM)
Average69 °F69%30.00 "Hg
* Reported Jul 9 4:20 PM — Jul 24 4:20 PM, Poole, Weather by CustomWeather, © 2014

Note: Actual official high and low records may vary slightly from our data, if they occured in-between our weather recording intervals... More about our weather records

Advertising

Poole weather history for previous 24 hours

 ConditionsComfort  
Time TempWeatherWind HumidityBarometerVisibility
4:20 PM
Jul 24
84 °FScattered clouds.9 mph43%29.98 "HgN/A
3:50 PM84 °FScattered clouds.5 mph40%29.98 "HgN/A
3:20 PM82 °FScattered clouds.7 mph42%29.98 "HgN/A
2:50 PM82 °FPassing clouds.7 mph42%29.98 "HgN/A
2:20 PM82 °FPassing clouds.8 mph40%29.98 "HgN/A
1:50 PM84 °FPassing clouds.10 mph43%30.01 "HgN/A
1:20 PM84 °FPassing clouds.10 mph43%30.01 "HgN/A
12:50 PM82 °FPassing clouds.9 mph48%30.01 "HgN/A
12:20 PM81 °FPassing clouds.12 mph51%30.01 "HgN/A
11:50 AM81 °FSunny.12 mph51%30.01 "Hg10 mi
11:20 AM79 °FSunny.13 mph54%30.01 "Hg10 mi
10:50 AM77 °FSunny.12 mph57%30.01 "Hg10 mi
10:20 AM75 °FPassing clouds.12 mph61%30.01 "HgN/A
9:50 AM73 °FSunny.12 mph61%30.01 "Hg10 mi
9:20 AM72 °FSunny.12 mph69%30.01 "Hg10 mi
8:50 AM70 °FSunny.13 mph69%30.01 "Hg10 mi
8:20 AM68 °FSunny.13 mph69%30.01 "Hg10 mi
7:50 AM66 °FSunny.12 mph73%30.01 "Hg10 mi
7:20 AM66 °FSunny.10 mph73%30.01 "Hg10 mi
6:20 AM63 °FClear.10 mph77%30.01 "Hg10 mi
5:50 AM63 °FClear.5 mph77%30.01 "Hg10 mi
5:20 AM63 °FClear.6 mph83%30.01 "Hg10 mi
4:50 AM64 °FClear.5 mph78%30.01 "Hg10 mi
2:50 AM66 °FClear.8 mph78%30.01 "Hg10 mi
1:50 AM68 °FClear.9 mph73%30.01 "Hg10 mi
1:20 AM68 °FClear.9 mph73%30.01 "Hg10 mi
12:50 AM68 °FClear.8 mph73%30.01 "Hg10 mi
12:20 AM68 °FClear.10 mph73%30.01 "Hg10 mi
11:50 PM
Jul 23
68 °FClear.7 mph73%30.04 "Hg10 mi
11:20 PM70 °FClear.6 mph69%30.01 "Hg10 mi
10:50 PM70 °FClear.7 mph69%30.04 "Hg10 mi
10:20 PM70 °FClear.7 mph78%30.04 "Hg10 mi
9:50 PM72 °FSunny.2 mph69%30.01 "Hg10 mi
9:20 PM73 °FSunny.2 mph69%30.01 "Hg10 mi
8:50 PM75 °FSunny.5 mph61%30.01 "Hg10 mi
8:20 PM77 °FSunny.2 mph57%30.01 "Hg10 mi
7:50 PM77 °FSunny.5 mph57%30.01 "Hg10 mi
7:20 PM79 °FSunny.5 mph54%30.01 "Hg10 mi
6:50 PM81 °FSunny.3 mph51%30.01 "Hg10 mi
6:20 PM82 °FPassing clouds.3 mph48%30.01 "HgN/A
5:50 PM81 °FPassing clouds.5 mph48%30.01 "HgN/A
5:20 PM81 °FPassing clouds.7 mph51%30.01 "HgN/A
Weather by CustomWeather, © 2014

See weather overviewHow to use our weather pages